[[{"header":{"parameterUnit":"m.s-1","parameterCategory":1,"la1":30.2991,"la2":30.254,"lo1":-89.0895,"lo2":-89.0444,"dy":0.0017,"dx":0.0017,"nx":28,"ny":28,"refTime":"2024-04-10T03:00:00:Z","depth":0,"parameterNumber":2,"parameterNumberName":"U-component_of_WINDS"},"data":[0,0,0,0,0,0,0,0,0,0,0,0,0,0,0,0,0,0,0,0,0,0,0,0,0,0,0,0,0,0,0,0,0,0,0,0,0,0,0,0,0,0,0,0,0,0,0,0,0,0,0,0,0,0,0,0,0,0,-6.2259,-6.2261,0,-6.2519,-6.2522,-6.2525,-6.261,-6.2609,-6.2608,-6.2606,-6.2872,-6.288,-6.2888,0,0,0,0,0,0,0,0,0,0,0,0,0,-6.1832,-6.1839,-6.2258,-6.2262,-6.2265,-6.2519,-6.2523,-6.2526,-6.261,-6.2609,-6.2607,-6.2606,-6.2869,-6.2879,-6.2888,0,0,0,0,0,0,0,0,0,0,0,0,0,-6.2047,-6.1842,-6.2258,-6.2337,-6.2347,-6.2518,-6.2523,-6.2527,-6.261,-6.2609,-6.2607,-6.2605,-6.2866,-6.2878,-6.289,-6.3,0,0,-6.2927,-6.2932,0,0,0,0,0,0,0,0,-6.2035,-6.2063,-6.2322,-6.2332,-6.2343,-6.253,-6.247,-6.2685,-6.2611,-6.251,-6.2606,-6.2604,-6.2759,-6.278,-6.2833,-6.3012,-6.3024,-6.2928,-6.2936,-6.2941,-6.2944,0,0,0,0,0,0,0,-6.202,-6.2052,-6.2362,-6.2326,-6.2339,-6.236,-6.2389,-6.2511,-6.2641,-6.2519,-6.2526,-6.2556,-6.2765,-6.2821,-6.284,-6.3028,-6.2928,-6.2939,-6.2946,-6.2951,-6.3311,-6.3313,0,0,0,0,0,0,-6.1992,-6.2039,-6.2353,-6.2369,-6.2182,-6.2369,-6.2401,-6.2472,-6.264,-6.2664,-6.2557,-6.2559,-6.2801,-6.2825,-6.2849,-6.2989,-6.2941,-6.2952,-6.2959,-6.3309,-6.3311,-6.3314,0,0,0,0,0,0,-6.1982,-6.2019,-6.2343,-6.2206,-6.2249,-6.2378,-6.2457,-6.2478,-6.2534,-6.2669,-6.2692,-6.259,-6.2801,-6.2832,-6.2962,-6.3,-6.2958,-6.2969,-6.3306,-6.3309,-6.3313,-6.3269,0,0,0,0,0,0,-6.197,-6.2015,-6.2058,-6.2207,-6.2256,-6.2451,-6.246,-6.2484,-6.2555,-6.256,-6.2707,-6.2729,-6.2802,-6.2943,-6.2974,-6.3016,-6.2978,-6.3303,-6.3308,-6.3311,-6.3268,-6.3271,-6.3273,0,0,0,0,0,-6.1954,-6.2035,-6.206,-6.2097,-6.2313,-6.2453,-6.2481,-6.2564,-6.2558,-6.2603,-6.2689,-6.2724,-6.2991,-6.2956,-6.2991,-6.3037,-6.3301,-6.3306,-6.3311,-6.3267,-6.327,-6.3273,0,0,0,0,0,0,-6.1887,-6.2056,-6.2085,-6.2217,-6.232,-6.2467,-6.2525,-6.2565,-6.2671,-6.2671,-6.2768,-6.2801,-6.2923,-6.2994,-6.2951,-6.3153,-6.3148,-6.316,-6.3102,-6.3106,-6.3109,-6.3088,-6.2988,0,0,0,0,0,-6.1888,-6.1988,-6.213,-6.2232,-6.2283,-6.2395,-6.2459,-6.2514,-6.2624,-6.2668,-6.2764,-6.287,-6.2977,-6.3046,-6.3153,-6.3279,-6.3312,-6.3328,-6.3331,-6.3332,-6.3341,-6.3413,-6.3422,-6.333,-6.333,-6.333,0,0,-6.189,-6.1995,-6.2052,-6.2222,-6.2308,-6.2409,-6.2431,-6.2537,-6.2613,-6.2684,-6.2812,-6.2887,-6.3011,-6.3139,-6.3201,-6.3202,-6.3374,-6.3339,-6.3339,-6.3347,-6.3419,-6.3428,-6.3435,-6.3334,-6.3333,-6.3332,0,0,-6.1945,-6.2035,-6.213,-6.2216,-6.2347,-6.2421,-6.2444,-6.2586,-6.2638,-6.2768,-6.2824,-6.2916,-6.3099,-6.3185,-6.3253,-6.3342,-6.3378,-6.3374,-6.3387,-6.3456,-6.3463,-6.347,-6.3501,-6.3511,-6.3383,-6.3383,-6.3383,0,-6.1931,-6.2085,-6.2173,-6.2277,-6.235,-6.242,-6.2517,-6.2596,-6.2755,-6.2803,-6.2803,-6.3035,-6.3123,-6.3273,-6.3295,-6.3348,-6.3376,-6.3357,-6.3455,-6.3463,-6.3471,-6.3501,-6.3513,-6.3382,-6.3382,-6.3382,-6.3382,0,-6.2061,-6.2167,-6.2229,-6.238,-6.2461,-6.256,-6.2663,-6.2733,-6.2781,-6.2856,-6.2988,-6.3097,-6.3227,-6.3267,-6.3315,-6.3424,-6.342,-6.3436,-6.3433,-6.3476,-6.3507,-6.3519,-6.338,-6.338,-6.338,-6.3381,0,0,-6.2079,-6.2279,-6.23,-6.237,-6.252,-6.2604,-6.2707,-6.2834,-6.2892,-6.3,-6.3088,-6.3242,-6.3259,-6.3335,-6.3394,-6.3455,-6.3517,-6.3464,-6.3468,-6.3469,-6.3643,-6.3628,-6.3641,-6.3543,-6.3546,-6.3548,-6.3632,0,-6.2153,-6.2339,-6.2422,-6.2571,-6.267,-6.2739,-6.2829,-6.293,-6.3003,-6.3098,-6.3178,-6.3285,-6.3299,-6.3346,-6.3409,-6.3496,-6.3553,-6.3492,-6.3625,-6.3629,-6.359,-6.3657,-6.3642,-6.3716,-6.3645,-6.3647,-6.3648,0,-6.2263,-6.2371,-6.253,-6.2668,-6.2713,-6.2792,-6.2915,-6.3005,-6.3122,-6.3171,-6.3257,-6.3313,-6.3423,-6.3414,-6.3567,-6.3523,-6.3583,-6.3634,-6.3639,-6.3653,-6.3639,-6.3671,-6.3742,-6.3752,-6.3668,-6.3666,-6.3665,0,-6.2259,-6.2444,-6.2563,-6.2621,-6.2786,-6.2839,-6.291,-6.3026,-6.3097,-6.3205,-6.3253,-6.3372,-6.3437,-6.3528,-6.3615,-6.3601,-6.376,-6.3758,-6.3802,-6.38,-6.3831,-6.3828,-6.391,-6.3872,-6.3872,-6.3872,-6.3872,0,-6.2332,-6.2426,-6.2564,-6.2637,-6.2744,-6.2839,-6.2942,-6.3019,-6.312,-6.3209,-6.3277,-6.3359,-6.3469,-6.3565,-6.3634,-6.375,-6.3779,-6.3821,-6.3837,-6.3814,-6.3808,-6.3853,-6.3849,-6.3875,-6.3874,-6.3874,-6.3873,0,-6.2345,-6.2441,-6.2575,-6.272,-6.2759,-6.2832,-6.2956,-6.3029,-6.3105,-6.3217,-6.3249,-6.3368,-6.3485,-6.3581,-6.3733,-6.378,-6.39,-6.392,-6.386,-6.3869,-6.3908,-6.3902,-6.4021,-6.4041,-6.399,-6.399,-6.399,0,-6.2384,-6.2458,-6.2611,-6.2675,-6.2746,-6.2849,-6.2922,-6.3018,-6.3092,-6.3231,-6.3287,-6.3408,-6.351,-6.3693,-6.3793,-6.391,-6.3933,-6.3967,-6.3951,-6.3925,-6.3932,-6.3926,-6.3934,-6.3967,-6.3968,-6.3968,-6.3968,0,-6.2443,-6.2487,-6.259,-6.2711,-6.2796,-6.2896,-6.2997,-6.3045,-6.316,-6.3239,-6.3359,-6.3438,-6.3595,-6.3714,-6.3842,-6.3915,-6.396,-6.3972,-6.3989,-6.3964,-6.3926,-6.3946,-6.3862,-6.3969,-6.3969,-6.3968,-6.3968,-6.3968,-6.247,-6.2539,-6.2657,-6.277,-6.2856,-6.2949,-6.3025,-6.3111,-6.3213,-6.3347,-6.3398,-6.3521,-6.3636,-6.3813,-6.3886,-6.3984,-6.3989,-6.4012,-6.4018,-6.4022,-6.4018,-6.3912,-6.4007,-6.4007,-6.4008,-6.4008,-6.4008,0,-6.2532,-6.2612,-6.2715,-6.2853,-6.2942,-6.2978,-6.3092,-6.3163,-6.327,-6.3374,-6.3473,-6.3611,-6.3727,-6.3837,-6.3959,-6.4015,-6.4039,-6.4044,-6.404,-6.4056,-6.4007,-6.398,-6.4023,-6.4023,-6.4023,-6.4023,-6.4023,-6.4023,-6.2575,-6.2693,-6.2751,-6.2912,-6.2992,-6.3112,-6.3174,-6.326,-6.3343,-6.3493,-6.359,-6.3662,-6.3768,-6.3898,-6.4006,-6.4036,-6.4077,-6.4076,-6.411,-6.4062,-6.4059,-6.4057,-6.4032,-6.4084,-6.4084,-6.4151,-6.4151,-6.4152]},{"header":{"parameterUnit":"m.s-1","parameterCategory":1,"la1":30.2991,"la2":30.254,"lo1":-89.0895,"lo2":-89.0444,"dy":0.0017,"dx":0.0017,"nx":28,"ny":28,"refTime":"2024-04-10T03:00:00:Z","depth":0,"parameterNumber":3,"parameterNumberName":"V-component_of_WINDS"},"data":[0,0,0,0,0,0,0,0,0,0,0,0,0,0,0,0,0,0,0,0,0,0,0,0,0,0,0,0,0,0,0,0,0,0,0,0,0,0,0,0,0,0,0,0,0,0,0,0,0,0,0,0,0,0,0,0,0,0,10.9978,10.9979,0,11.0091,11.0092,11.0093,11.0006,11.0003,10.9999,10.9995,11.0104,11.011,11.0116,0,0,0,0,0,0,0,0,0,0,0,0,0,10.9682,10.9688,10.9978,10.9979,10.9981,11.0091,11.0092,11.0094,11.0007,11.0003,10.9998,10.9994,11.0102,11.0109,11.0117,0,0,0,0,0,0,0,0,0,0,0,0,0,10.9804,10.969,10.9978,10.9951,10.995,11.009,11.0092,11.0094,11.0008,11.0002,10.9997,10.9992,11.0099,11.0109,11.0118,11.0289,0,0,11.0147,11.0151,0,0,0,0,0,0,0,0,10.9797,10.9815,10.9954,10.9953,10.9952,11.0029,11.0027,11.0159,11.0009,10.9986,10.9995,10.9989,11.0083,11.0094,11.0127,11.0294,11.0298,11.0148,11.0154,11.0158,11.0161,0,0,0,0,0,0,0,10.9789,10.981,11.0022,10.9956,10.9955,10.9932,10.9943,11.0052,11.0064,10.9987,10.9981,10.9996,11.0081,11.0118,11.0129,11.03,11.0148,11.0156,11.0162,11.0166,11.0614,11.062,0,0,0,0,0,0,10.9784,10.9803,11.0019,11.0026,10.986,10.9941,10.9954,11.001,11.0063,11.0066,11.0001,10.9992,11.0104,11.0118,11.0132,11.0337,11.0158,11.0167,11.0172,11.0608,11.0615,11.0622,0,0,0,0,0,0,10.9778,10.9804,11.0014,10.9913,10.9938,10.9953,11.0016,11.0015,11.0051,11.0073,11.0074,11.0036,11.01,11.0119,11.0251,11.0339,11.0171,11.018,11.0601,11.061,11.0619,11.0747,0,0,0,0,0,0,10.977,10.9802,10.9869,10.9915,10.9944,11.0134,11.0021,11.0021,11.0069,11.0058,11.0107,11.0109,11.0097,11.0238,11.0261,11.035,11.0187,11.0593,11.0605,11.0616,11.0735,11.076,11.0781,0,0,0,0,0,10.976,10.9898,10.9873,10.9899,11.0027,11.0139,11.0155,11.0141,11.0076,11.0142,11.0156,11.0108,11.0326,11.0252,11.0277,11.037,11.0587,11.0602,11.0615,11.0725,11.0755,11.078,0,0,0,0,0,0,10.9859,10.9904,10.9876,11.0034,11.0084,11.0124,11.0207,11.0172,11.0239,11.0226,11.0203,11.0215,11.0355,11.0375,11.0292,11.0539,11.0446,11.0466,11.0521,11.055,11.0572,11.0564,11.0195,0,0,0,0,0,10.99,10.9989,11.0022,11.0158,11.0185,11.0192,11.024,11.0225,11.0275,11.0294,11.0318,11.0366,11.0446,11.0498,11.0572,11.0737,11.0747,11.0814,11.0837,11.0855,11.0873,11.0963,11.0993,11.0668,11.0668,11.0668,0,0,10.9983,11.0019,11.0076,11.0179,11.0216,11.0307,11.021,11.031,11.0377,11.0308,11.0437,11.0456,11.0508,11.0658,11.0725,11.0679,11.0965,11.0873,11.0888,11.0895,11.098,11.1011,11.1039,11.0677,11.0676,11.0674,0,0,11.0184,11.022,11.0339,11.0378,11.0436,11.044,11.0469,11.0516,11.0527,11.0655,11.0606,11.0684,11.0821,11.0861,11.09,11.1118,11.1076,11.1142,11.1261,11.135,11.1375,11.1398,11.1477,11.1506,11.1159,11.116,11.116,0,11.0281,11.0419,11.0403,11.0509,11.0556,11.05,11.062,11.0658,11.0736,11.0769,11.0717,11.089,11.0921,11.108,11.1134,11.1166,11.1198,11.1137,11.1373,11.1396,11.1417,11.1492,11.1522,11.1167,11.1167,11.1166,11.1165,0,11.0536,11.0632,11.072,11.0802,11.0858,11.097,11.097,11.1028,11.1009,11.1018,11.115,11.1185,11.1267,11.1303,11.1284,11.1461,11.1431,11.1377,11.1283,11.1456,11.1526,11.1555,11.1179,11.1176,11.1174,11.1172,0,0,11.0801,11.0874,11.0907,11.0944,11.1005,11.1078,11.1187,11.1269,11.1321,11.1376,11.1467,11.1586,11.1537,11.158,11.1564,11.1642,11.1814,11.1578,11.1579,11.1622,11.2013,11.2055,11.2089,11.1787,11.1792,11.1796,11.2009,0,11.1007,11.12,11.119,11.137,11.1459,11.1409,11.1503,11.155,11.1562,11.1638,11.1649,11.1735,11.1662,11.1689,11.1763,11.1778,11.1893,11.1762,11.187,11.1874,11.1861,11.2125,11.2169,11.2369,11.2036,11.2041,11.2044,0,11.1272,11.1341,11.1531,11.158,11.1617,11.1703,11.1779,11.1852,11.1904,11.1907,11.1957,11.1929,11.2038,11.1942,11.2092,11.2003,11.2046,11.2061,11.2068,11.2078,11.1971,11.2144,11.2431,11.2462,11.2087,11.2084,11.2081,0,11.1449,11.1588,11.1721,11.1754,11.1814,11.1876,11.1904,11.195,11.2001,11.2066,11.2099,11.2175,11.2217,11.2275,11.2269,11.2199,11.2422,11.2324,11.2427,11.2427,11.2477,11.2474,11.2777,11.2503,11.2502,11.2502,11.2501,0,11.168,11.1799,11.1802,11.1884,11.2015,11.2002,11.2131,11.2152,11.2194,11.2278,11.2237,11.2316,11.2301,11.238,11.2375,11.2501,11.2519,11.2524,11.2522,11.2529,11.2529,11.2558,11.2544,11.251,11.2508,11.2506,11.2505,0,11.1901,11.1908,11.2049,11.2096,11.211,11.2205,11.2244,11.2321,11.2329,11.2436,11.246,11.2473,11.2564,11.2563,11.2665,11.2661,11.2816,11.2797,11.28,11.2797,11.29,11.2891,11.3234,11.3279,11.2974,11.2977,11.2979,0,11.2049,11.2139,11.2197,11.2252,11.2284,11.2372,11.2425,11.2414,11.247,11.2537,11.2606,11.2693,11.2763,11.291,11.2927,11.3005,11.2988,11.3103,11.3,11.3005,11.2992,11.2988,11.2997,11.3124,11.3127,11.313,11.3132,0,11.2311,11.231,11.2389,11.2471,11.2535,11.2598,11.2655,11.2701,11.2697,11.2762,11.2856,11.291,11.3016,11.3104,11.3179,11.3205,11.3169,11.3165,11.3193,11.3202,11.3201,11.3204,11.2857,11.3157,11.3154,11.3152,11.3151,11.315,11.2501,11.258,11.2634,11.2723,11.2766,11.2821,11.2897,11.2916,11.2995,11.3083,11.307,11.3176,11.3225,11.3324,11.3357,11.3437,11.3397,11.3437,11.3448,11.3458,11.3471,11.3187,11.3451,11.345,11.3449,11.3449,11.3448,0,11.2763,11.2795,11.2878,11.2962,11.3032,11.2993,11.3055,11.3116,11.321,11.326,11.3331,11.3439,11.3524,11.3549,11.363,11.3691,11.3676,11.3712,11.3708,11.3715,11.3501,11.347,11.3723,11.3723,11.3723,11.3723,11.3723,11.3723,11.2907,11.304,11.3046,11.32,11.323,11.3335,11.3374,11.3425,11.3465,11.3589,11.3661,11.3677,11.3717,11.3802,11.3878,11.3883,11.3915,11.3959,11.3958,11.3758,11.373,11.3704,11.3674,11.3966,11.3966,11.4165,11.4167,11.4168]}]]